Location: Krasnoyarskiy
(51.1133°N, 71.6497°E)
Time: 22:35:51
(UTC+00:00)

ARIANE 5 R/B - Pass Details

Date: 27 September 2022
Orbit: 748 x 794 km, 98.7° (Epoch: 03 December)

Event Time Altitude Azimuth Distance (km) Brightness Sun altitude
Rises 00:25:59 0° 9° (N) 3,253 6.0 -7.3°
Reaches altitude 10° 00:28:31 10° 359° (N) 2,314 5.1 -6.9°
Maximum altitude 00:32:55 31° 299° (WNW) 1,322 3.3 -6.2°
Drops below altitude 10° 00:37:17 10° 238° (WSW) 2,279 4.4 -5.5°
Sets 00:39:46 0° 229° (SW) 3,195 5.2 -5.1°
